Year,Month,Day,Hour,Minute,Value (Times are PST for temperature in C)
2007,08,28,00,00,13.90
2007,08,28,00,01,13.90
2007,08,28,00,02,13.90
2007,08,28,00,03,13.90
2007,08,28,00,04,13.90
2007,08,28,00,05,13.90
2007,08,28,00,06,13.90
2007,08,28,00,07,13.90
2007,08,28,00,08,13.90
2007,08,28,00,09,13.90
2007,08,28,00,10,13.90
2007,08,28,00,11,13.90
2007,08,28,00,12,13.90
2007,08,28,00,13,13.90
2007,08,28,00,14,13.90
2007,08,28,00,15,13.90
2007,08,28,00,16,13.90
2007,08,28,00,17,13.90
2007,08,28,00,18,13.90
2007,08,28,00,19,13.90
2007,08,28,00,20,13.90
2007,08,28,00,21,13.90
2007,08,28,00,22,13.90
2007,08,28,00,23,13.90
2007,08,28,00,24,13.80
2007,08,28,00,25,13.80
2007,08,28,00,26,13.80
2007,08,28,00,27,13.80
2007,08,28,00,28,13.80
2007,08,28,00,29,13.80
2007,08,28,00,30,13.80
2007,08,28,00,31,13.80
2007,08,28,00,32,13.80
2007,08,28,00,33,13.80
2007,08,28,00,34,13.80
2007,08,28,00,35,13.80
2007,08,28,00,36,13.80
2007,08,28,00,37,13.80
2007,08,28,00,38,13.80
2007,08,28,00,39,13.70
2007,08,28,00,40,13.70
2007,08,28,00,41,13.70
2007,08,28,00,42,13.70
2007,08,28,00,43,13.70
2007,08,28,00,44,13.70
2007,08,28,00,45,13.70
2007,08,28,00,46,13.70
2007,08,28,00,47,13.70
2007,08,28,00,48,13.70
2007,08,28,00,49,13.70
2007,08,28,00,50,13.70
2007,08,28,00,51,13.70
2007,08,28,00,52,13.70
2007,08,28,00,53,13.70
2007,08,28,00,54,13.70
2007,08,28,00,55,13.60
2007,08,28,00,56,13.60
2007,08,28,00,57,13.60
2007,08,28,00,58,13.60
2007,08,28,00,59,13.60
2007,08,28,01,00,13.50
2007,08,28,01,01,13.50
2007,08,28,01,02,13.50
2007,08,28,01,03,13.50
2007,08,28,01,04,13.50
2007,08,28,01,05,13.40
2007,08,28,01,06,13.40
2007,08,28,01,07,13.40
2007,08,28,01,08,13.40
2007,08,28,01,09,13.30
2007,08,28,01,10,13.30
2007,08,28,01,11,13.30
2007,08,28,01,12,13.30
2007,08,28,01,13,13.20
2007,08,28,01,14,13.20
2007,08,28,01,15,13.20
2007,08,28,01,16,13.10
2007,08,28,01,17,13.10
2007,08,28,01,18,13.00
2007,08,28,01,19,13.00
2007,08,28,01,20,13.00
2007,08,28,01,21,13.00
2007,08,28,01,22,12.90
2007,08,28,01,23,12.90
2007,08,28,01,24,12.90
2007,08,28,01,25,12.90
2007,08,28,01,26,12.80
2007,08,28,01,27,12.80
2007,08,28,01,28,12.80
2007,08,28,01,29,12.80
2007,08,28,01,30,12.80
2007,08,28,01,31,12.80
2007,08,28,01,32,12.80
2007,08,28,01,33,12.70
2007,08,28,01,34,12.70
2007,08,28,01,35,12.70
2007,08,28,01,36,12.70
2007,08,28,01,37,12.70
2007,08,28,01,38,12.70
2007,08,28,01,39,12.70
2007,08,28,01,40,12.70
2007,08,28,01,41,12.70
2007,08,28,01,42,12.70
2007,08,28,01,43,12.70
2007,08,28,01,44,12.70
2007,08,28,01,45,12.60
2007,08,28,01,46,12.60
2007,08,28,01,47,12.60
2007,08,28,01,48,12.60
2007,08,28,01,49,12.60
2007,08,28,01,50,12.60
2007,08,28,01,51,12.60
2007,08,28,01,52,12.50
2007,08,28,01,53,12.50
2007,08,28,01,54,12.50
2007,08,28,01,55,12.40
2007,08,28,01,56,12.40
2007,08,28,01,57,12.30
2007,08,28,01,58,12.30
2007,08,28,01,59,12.30
2007,08,28,02,00,12.30
2007,08,28,02,01,12.30
2007,08,28,02,02,12.20
2007,08,28,02,03,12.20
2007,08,28,02,04,12.10
2007,08,28,02,05,12.10
2007,08,28,02,06,12.10
2007,08,28,02,07,12.00
2007,08,28,02,08,12.00
2007,08,28,02,09,12.00
2007,08,28,02,10,12.00
2007,08,28,02,11,11.90
2007,08,28,02,12,11.90
2007,08,28,02,13,11.90
2007,08,28,02,14,11.90
2007,08,28,02,15,11.80
2007,08,28,02,16,11.80
2007,08,28,02,17,11.80
2007,08,28,02,18,11.80
2007,08,28,02,19,11.80
2007,08,28,02,20,11.80
2007,08,28,02,21,11.80
2007,08,28,02,22,11.80
2007,08,28,02,23,11.80
2007,08,28,02,24,11.80
2007,08,28,02,25,11.80
2007,08,28,02,26,11.80
2007,08,28,02,27,11.80
2007,08,28,02,28,11.80
2007,08,28,02,29,11.80
2007,08,28,02,30,11.80
2007,08,28,02,31,11.80
2007,08,28,02,32,11.70
2007,08,28,02,33,11.70
2007,08,28,02,34,11.70
2007,08,28,02,35,11.70
2007,08,28,02,36,11.70
2007,08,28,02,37,11.70
2007,08,28,02,38,11.70
2007,08,28,02,39,11.60
2007,08,28,02,40,11.60
2007,08,28,02,41,11.60
2007,08,28,02,42,11.60
2007,08,28,02,43,11.60
2007,08,28,02,44,11.60
2007,08,28,02,45,11.60
2007,08,28,02,46,11.60
2007,08,28,02,47,11.60
2007,08,28,02,48,11.40
2007,08,28,02,49,11.40
2007,08,28,02,50,11.40
2007,08,28,02,51,11.40
2007,08,28,02,52,11.40
2007,08,28,02,53,11.40
2007,08,28,02,54,11.40
2007,08,28,02,55,11.40
2007,08,28,02,56,11.40
2007,08,28,02,57,11.40
2007,08,28,02,58,11.40
2007,08,28,02,59,11.40
2007,08,28,03,00,11.40
2007,08,28,03,01,11.40
2007,08,28,03,02,11.30
2007,08,28,03,03,11.30
2007,08,28,03,04,11.30
2007,08,28,03,05,11.30
2007,08,28,03,06,11.30
2007,08,28,03,07,11.30
2007,08,28,03,08,11.30
2007,08,28,03,09,11.20
2007,08,28,03,10,11.20
2007,08,28,03,11,11.20
2007,08,28,03,12,11.20
2007,08,28,03,13,11.20
2007,08,28,03,14,11.20
2007,08,28,03,15,11.20
2007,08,28,03,16,11.20
2007,08,28,03,17,11.20
2007,08,28,03,18,11.20
2007,08,28,03,19,11.20
2007,08,28,03,20,11.20
2007,08,28,03,21,11.20
2007,08,28,03,22,11.20
2007,08,28,03,23,11.20
2007,08,28,03,24,11.10
2007,08,28,03,25,11.10
2007,08,28,03,26,11.10
2007,08,28,03,27,11.10
2007,08,28,03,28,11.10
2007,08,28,03,29,11.10
2007,08,28,03,30,11.10
2007,08,28,03,31,11.10
2007,08,28,03,32,11.10
2007,08,28,03,33,11.10
2007,08,28,03,34,11.10
2007,08,28,03,35,11.00
2007,08,28,03,36,10.90
2007,08,28,03,37,10.90
2007,08,28,03,38,10.90
2007,08,28,03,39,10.90
2007,08,28,03,40,10.90
2007,08,28,03,41,10.90
2007,08,28,03,42,10.90
2007,08,28,03,43,10.90
2007,08,28,03,44,10.90
2007,08,28,03,45,10.90
2007,08,28,03,46,10.90
2007,08,28,03,47,10.90
2007,08,28,03,48,10.80
2007,08,28,03,49,10.80
2007,08,28,03,50,10.80
2007,08,28,03,51,10.80
2007,08,28,03,52,10.70
2007,08,28,03,53,10.70
2007,08,28,03,54,10.60
2007,08,28,03,55,10.60
2007,08,28,03,56,10.60
2007,08,28,03,57,10.60
2007,08,28,03,58,10.60
2007,08,28,03,59,10.60
2007,08,28,04,00,10.60
2007,08,28,04,01,10.60
2007,08,28,04,02,10.60
2007,08,28,04,03,10.50
2007,08,28,04,04,10.40
2007,08,28,04,05,10.40
2007,08,28,04,06,10.40
2007,08,28,04,07,10.40
2007,08,28,04,08,10.40
2007,08,28,04,09,10.40
2007,08,28,04,10,10.40
2007,08,28,04,11,10.40
2007,08,28,04,12,10.40
2007,08,28,04,13,10.40
2007,08,28,04,14,10.40
2007,08,28,04,15,10.40
2007,08,28,04,16,10.40
2007,08,28,04,17,10.40
2007,08,28,04,18,10.40
2007,08,28,04,19,10.40
2007,08,28,04,20,10.40
2007,08,28,04,21,10.40
2007,08,28,04,22,10.40
2007,08,28,04,23,10.40
2007,08,28,04,24,10.50
2007,08,28,04,25,10.60
2007,08,28,04,26,10.60
2007,08,28,04,27,10.50
2007,08,28,04,28,10.40
2007,08,28,04,29,10.40
2007,08,28,04,30,10.40
2007,08,28,04,31,10.40
2007,08,28,04,32,10.40
2007,08,28,04,33,10.40
2007,08,28,04,34,10.40
2007,08,28,04,35,10.40
2007,08,28,04,36,10.40
2007,08,28,04,37,10.40
2007,08,28,04,38,10.30
2007,08,28,04,39,10.30
2007,08,28,04,40,10.30
2007,08,28,04,41,10.20
2007,08,28,04,42,10.20
2007,08,28,04,43,10.20
2007,08,28,04,44,10.20
2007,08,28,04,45,10.10
2007,08,28,04,46,10.10
2007,08,28,04,47,10.10
2007,08,28,04,48,10.10
2007,08,28,04,49,10.20
2007,08,28,04,50,10.20
2007,08,28,04,51,10.20
2007,08,28,04,52,10.20
2007,08,28,04,53,10.20
2007,08,28,04,54,10.20
2007,08,28,04,55,10.20
2007,08,28,04,56,10.20
2007,08,28,04,57,10.20
2007,08,28,04,58,10.20
2007,08,28,04,59,10.20
2007,08,28,05,00,10.20
2007,08,28,05,01,10.20
2007,08,28,05,02,10.20
2007,08,28,05,03,10.20
2007,08,28,05,04,10.20
2007,08,28,05,05,10.20
2007,08,28,05,06,10.10
2007,08,28,05,07,10.10
2007,08,28,05,08,10.10
2007,08,28,05,09,10.10
2007,08,28,05,10,10.10
2007,08,28,05,11,10.10
2007,08,28,05,12,10.10
2007,08,28,05,13,10.10
2007,08,28,05,14,10.10
2007,08,28,05,15,10.10
2007,08,28,05,16,10.10
2007,08,28,05,17,10.10
2007,08,28,05,18,10.10
2007,08,28,05,19,10.10
2007,08,28,05,20,10.10
2007,08,28,05,21,10.10
2007,08,28,05,22,10.10
2007,08,28,05,23,10.00
2007,08,28,05,24,9.90
2007,08,28,05,25,9.90
2007,08,28,05,26,9.90
2007,08,28,05,27,9.90
2007,08,28,05,28,9.90
2007,08,28,05,29,9.80
2007,08,28,05,30,9.80
2007,08,28,05,31,9.80
2007,08,28,05,32,9.80
2007,08,28,05,33,9.80
2007,08,28,05,34,9.80
2007,08,28,05,35,9.80
2007,08,28,05,36,9.80
2007,08,28,05,37,9.80
2007,08,28,05,38,9.90
2007,08,28,05,39,9.90
2007,08,28,05,40,9.90
2007,08,28,05,41,9.90
2007,08,28,05,42,9.90
2007,08,28,05,43,9.80
2007,08,28,05,44,9.80
2007,08,28,05,45,9.80
2007,08,28,05,46,9.80
2007,08,28,05,47,9.70
2007,08,28,05,48,9.70
2007,08,28,05,49,9.70
2007,08,28,05,50,9.70
2007,08,28,05,51,9.70
2007,08,28,05,52,9.70
2007,08,28,05,53,9.70
2007,08,28,05,54,9.70
2007,08,28,05,55,9.70
2007,08,28,05,56,9.70
2007,08,28,05,57,9.70
2007,08,28,05,58,9.70
2007,08,28,05,59,9.70
2007,08,28,06,00,9.70
2007,08,28,06,01,9.70
2007,08,28,06,02,9.70
2007,08,28,06,03,9.80
2007,08,28,06,04,9.80
2007,08,28,06,05,9.90
2007,08,28,06,06,9.90
2007,08,28,06,07,9.90
2007,08,28,06,08,9.90
2007,08,28,06,09,9.90
2007,08,28,06,10,9.90
2007,08,28,06,11,9.80
2007,08,28,06,12,9.80
2007,08,28,06,13,9.80
2007,08,28,06,14,9.80
2007,08,28,06,15,9.80
2007,08,28,06,16,9.70
2007,08,28,06,17,9.70
2007,08,28,06,18,9.70
2007,08,28,06,19,9.70
2007,08,28,06,20,9.70
2007,08,28,06,21,9.70
2007,08,28,06,22,9.70
2007,08,28,06,23,9.70
2007,08,28,06,24,9.70
2007,08,28,06,25,9.70
2007,08,28,06,26,9.70
2007,08,28,06,27,9.70
2007,08,28,06,28,9.80
2007,08,28,06,29,9.80
2007,08,28,06,30,9.80
2007,08,28,06,31,9.80
2007,08,28,06,32,9.80
2007,08,28,06,33,9.80
2007,08,28,06,34,9.80
2007,08,28,06,35,9.80
2007,08,28,06,36,9.80
2007,08,28,06,37,9.80
2007,08,28,06,38,9.80
2007,08,28,06,39,9.80
2007,08,28,06,40,9.80
2007,08,28,06,41,9.80
2007,08,28,06,42,9.90
2007,08,28,06,43,9.90
2007,08,28,06,44,9.90
2007,08,28,06,45,10.00
2007,08,28,06,46,10.10
2007,08,28,06,47,10.10
2007,08,28,06,48,10.10
2007,08,28,06,49,10.10
2007,08,28,06,50,10.10
2007,08,28,06,51,10.20
2007,08,28,06,52,10.20
2007,08,28,06,53,10.10
2007,08,28,06,54,10.10
2007,08,28,06,55,10.10
2007,08,28,06,56,10.10
2007,08,28,06,57,10.10
2007,08,28,06,58,10.10
2007,08,28,06,59,10.20
2007,08,28,07,00,10.20
2007,08,28,07,01,10.20
2007,08,28,07,02,10.20
2007,08,28,07,03,10.20
2007,08,28,07,04,10.20
2007,08,28,07,05,10.20
2007,08,28,07,06,10.20
2007,08,28,07,07,10.30
2007,08,28,07,08,10.30
2007,08,28,07,09,10.40
2007,08,28,07,10,10.40
2007,08,28,07,11,10.40
2007,08,28,07,12,10.40
2007,08,28,07,13,10.40
2007,08,28,07,14,10.40
2007,08,28,07,15,10.40
2007,08,28,07,16,10.40
2007,08,28,07,17,10.50
2007,08,28,07,18,10.60
2007,08,28,07,19,10.60
2007,08,28,07,20,10.60
2007,08,28,07,21,10.60
2007,08,28,07,22,10.60
2007,08,28,07,23,10.60
2007,08,28,07,24,10.70
2007,08,28,07,25,10.70
2007,08,28,07,26,10.70
2007,08,28,07,27,10.80
2007,08,28,07,28,10.80
2007,08,28,07,29,10.90
2007,08,28,07,30,10.90
2007,08,28,07,31,10.90
2007,08,28,07,32,10.90
2007,08,28,07,33,10.90
2007,08,28,07,34,10.90
2007,08,28,07,35,11.10
2007,08,28,07,36,11.10
2007,08,28,07,37,11.10
2007,08,28,07,38,11.10
2007,08,28,07,39,11.10
2007,08,28,07,40,11.20
2007,08,28,07,41,11.20
2007,08,28,07,42,11.30
2007,08,28,07,43,11.30
2007,08,28,07,44,11.30
2007,08,28,07,45,11.40
2007,08,28,07,46,11.40
2007,08,28,07,47,11.40
2007,08,28,07,48,11.40
2007,08,28,07,49,11.60
2007,08,28,07,50,11.60
2007,08,28,07,51,11.60
2007,08,28,07,52,11.60
2007,08,28,07,53,11.60
2007,08,28,07,54,11.70
2007,08,28,07,55,11.70
2007,08,28,07,56,11.80
2007,08,28,07,57,11.80
2007,08,28,07,58,11.80
2007,08,28,07,59,11.90
2007,08,28,08,00,11.90
2007,08,28,08,01,12.00
2007,08,28,08,02,12.00
2007,08,28,08,03,12.10
2007,08,28,08,04,12.10
2007,08,28,08,05,12.20
2007,08,28,08,06,12.30
2007,08,28,08,07,12.30
2007,08,28,08,08,12.30
2007,08,28,08,09,12.40
2007,08,28,08,10,12.50
2007,08,28,08,11,12.50
2007,08,28,08,12,12.60
2007,08,28,08,13,12.70
2007,08,28,08,14,12.80
2007,08,28,08,15,12.80
2007,08,28,08,16,12.90
2007,08,28,08,17,13.00
2007,08,28,08,18,13.00
2007,08,28,08,19,13.10
2007,08,28,08,20,13.10
2007,08,28,08,21,13.20
2007,08,28,08,22,13.20
2007,08,28,08,23,13.20
2007,08,28,08,24,13.30
2007,08,28,08,25,13.30
2007,08,28,08,26,13.30
2007,08,28,08,27,13.40
2007,08,28,08,28,13.50
2007,08,28,08,29,13.50
2007,08,28,08,30,13.50
2007,08,28,08,31,13.60
2007,08,28,08,32,13.60
2007,08,28,08,33,13.70
2007,08,28,08,34,13.70
2007,08,28,08,35,13.70
2007,08,28,08,36,13.70
2007,08,28,08,37,13.80
2007,08,28,08,38,13.80
2007,08,28,08,39,13.90
2007,08,28,08,40,13.90
2007,08,28,08,41,14.00
2007,08,28,08,42,14.00
2007,08,28,08,43,14.10
2007,08,28,08,44,14.20
2007,08,28,08,45,14.20
2007,08,28,08,46,14.20
2007,08,28,08,47,14.20
2007,08,28,08,48,14.30
2007,08,28,08,49,14.40
2007,08,28,08,50,14.40
2007,08,28,08,51,14.50
2007,08,28,08,52,14.50
2007,08,28,08,53,14.60
2007,08,28,08,54,14.60
2007,08,28,08,55,14.60
2007,08,28,08,56,14.70
2007,08,28,08,57,14.70
2007,08,28,08,58,14.80
2007,08,28,08,59,14.80
2007,08,28,09,00,14.80
2007,08,28,09,01,14.90
2007,08,28,09,02,14.90
2007,08,28,09,03,14.90
2007,08,28,09,04,15.00
2007,08,28,09,05,15.00
2007,08,28,09,06,15.10
2007,08,28,09,07,15.10
2007,08,28,09,08,15.20
2007,08,28,09,09,15.20
2007,08,28,09,10,15.30
2007,08,28,09,11,15.30
2007,08,28,09,12,15.30
2007,08,28,09,13,15.40
2007,08,28,09,14,15.40
2007,08,28,09,15,15.40
2007,08,28,09,16,15.40
2007,08,28,09,17,15.40
2007,08,28,09,18,15.50
2007,08,28,09,19,15.50
2007,08,28,09,20,15.50
2007,08,28,09,21,15.60
2007,08,28,09,22,15.70
2007,08,28,09,23,15.70
2007,08,28,09,24,15.80
2007,08,28,09,25,15.80
2007,08,28,09,26,15.90
2007,08,28,09,27,16.10
2007,08,28,09,28,16.10
2007,08,28,09,29,16.20
2007,08,28,09,30,16.20
2007,08,28,09,31,16.30
2007,08,28,09,32,16.30
2007,08,28,09,33,16.30
2007,08,28,09,34,16.20
2007,08,28,09,35,16.10
2007,08,28,09,36,16.10
2007,08,28,09,37,16.00
2007,08,28,09,38,15.90
2007,08,28,09,39,15.80
2007,08,28,09,40,15.80
2007,08,28,09,41,15.70
2007,08,28,09,42,15.60
2007,08,28,09,43,15.50
2007,08,28,09,44,15.50
2007,08,28,09,45,15.50
2007,08,28,09,46,15.40
2007,08,28,09,47,15.40
2007,08,28,09,48,15.30
2007,08,28,09,49,15.30
2007,08,28,09,50,15.30
2007,08,28,09,51,15.30
2007,08,28,09,52,15.30
2007,08,28,09,53,15.20
2007,08,28,09,54,15.20
2007,08,28,09,55,15.20
2007,08,28,09,56,15.10
2007,08,28,09,57,15.10
2007,08,28,09,58,15.10
2007,08,28,09,59,15.10
2007,08,28,10,00,15.20
2007,08,28,10,01,15.20
2007,08,28,10,02,15.30
2007,08,28,10,03,15.30
2007,08,28,10,04,15.40
2007,08,28,10,05,15.50
2007,08,28,10,06,15.60
2007,08,28,10,07,15.70
2007,08,28,10,08,15.70
2007,08,28,10,09,15.70
2007,08,28,10,10,15.80
2007,08,28,10,11,15.80
2007,08,28,10,12,15.80
2007,08,28,10,13,16.00
2007,08,28,10,14,16.10
2007,08,28,10,15,16.20
2007,08,28,10,16,16.20
2007,08,28,10,17,16.30
2007,08,28,10,18,16.40
2007,08,28,10,19,16.50
2007,08,28,10,20,16.70
2007,08,28,10,21,16.70
2007,08,28,10,22,16.80
2007,08,28,10,23,16.90
2007,08,28,10,24,17.00
2007,08,28,10,25,17.20
2007,08,28,10,26,17.30
2007,08,28,10,27,17.30
2007,08,28,10,28,17.50
2007,08,28,10,29,17.60
2007,08,28,10,30,17.70
2007,08,28,10,31,17.80
2007,08,28,10,32,17.80
2007,08,28,10,33,17.90
2007,08,28,10,34,17.90
2007,08,28,10,35,17.90
2007,08,28,10,36,18.10
2007,08,28,10,37,18.10
2007,08,28,10,38,18.00
2007,08,28,10,39,17.90
2007,08,28,10,40,17.80
2007,08,28,10,41,17.70
2007,08,28,10,42,17.60
2007,08,28,10,43,17.60
2007,08,28,10,44,17.60
2007,08,28,10,45,17.50
2007,08,28,10,46,17.30
2007,08,28,10,47,17.30
2007,08,28,10,48,17.30
2007,08,28,10,49,17.30
2007,08,28,10,50,17.30
2007,08,28,10,51,17.30
2007,08,28,10,52,17.40
2007,08,28,10,53,17.50
2007,08,28,10,54,17.60
2007,08,28,10,55,17.60
2007,08,28,10,56,17.60
2007,08,28,10,57,17.70
2007,08,28,10,58,17.60
2007,08,28,10,59,17.60
2007,08,28,11,00,17.50
2007,08,28,11,01,17.60
2007,08,28,11,02,17.60
2007,08,28,11,03,17.70
2007,08,28,11,04,17.80
2007,08,28,11,05,17.80
2007,08,28,11,06,17.80
2007,08,28,11,07,17.80
2007,08,28,11,08,17.60
2007,08,28,11,09,17.40
2007,08,28,11,10,17.10
2007,08,28,11,11,16.80
2007,08,28,11,12,16.60
2007,08,28,11,13,16.40
2007,08,28,11,14,16.40
2007,08,28,11,15,16.30
2007,08,28,11,16,16.30
2007,08,28,11,17,16.20
2007,08,28,11,18,16.10
2007,08,28,11,19,16.10
2007,08,28,11,20,16.10
2007,08,28,11,21,16.10
2007,08,28,11,22,16.10
2007,08,28,11,23,16.20
2007,08,28,11,24,16.30
2007,08,28,11,25,16.30
2007,08,28,11,26,16.40
2007,08,28,11,27,16.30
2007,08,28,11,28,16.30
2007,08,28,11,29,16.30
2007,08,28,11,30,16.30
2007,08,28,11,31,16.30
2007,08,28,11,32,16.40
2007,08,28,11,33,16.30
2007,08,28,11,34,16.20
2007,08,28,11,35,16.20
2007,08,28,11,36,16.30
2007,08,28,11,37,16.40
2007,08,28,11,38,16.40
2007,08,28,11,39,16.60
2007,08,28,11,40,16.70
2007,08,28,11,41,16.70
2007,08,28,11,42,16.70
2007,08,28,11,43,16.70
2007,08,28,11,44,16.70
2007,08,28,11,45,16.70
2007,08,28,11,46,16.70
2007,08,28,11,47,16.70
2007,08,28,11,48,16.70
2007,08,28,11,49,16.80
2007,08,28,11,50,16.90
2007,08,28,11,51,17.00
2007,08,28,11,52,17.00
2007,08,28,11,53,17.00
2007,08,28,11,54,17.00
2007,08,28,11,55,17.10
2007,08,28,11,56,17.00
2007,08,28,11,57,17.00
2007,08,28,11,58,17.00
2007,08,28,11,59,17.00
2007,08,28,12,00,17.10
2007,08,28,12,01,17.20
2007,08,28,12,02,17.20
2007,08,28,12,03,17.20
2007,08,28,12,04,17.20
2007,08,28,12,05,17.20
2007,08,28,12,06,17.10
2007,08,28,12,07,17.00
2007,08,28,12,08,17.00
2007,08,28,12,09,17.00
2007,08,28,12,10,17.00
2007,08,28,12,11,17.00
2007,08,28,12,12,17.10
2007,08,28,12,13,17.20
2007,08,28,12,14,17.20
2007,08,28,12,15,17.30
2007,08,28,12,16,17.40
2007,08,28,12,17,17.50
2007,08,28,12,18,17.50
2007,08,28,12,19,17.40
2007,08,28,12,20,17.50
2007,08,28,12,21,17.50
2007,08,28,12,22,17.40
2007,08,28,12,23,17.30
2007,08,28,12,24,17.30
2007,08,28,12,25,17.30
2007,08,28,12,26,17.30
2007,08,28,12,27,17.40
2007,08,28,12,28,17.40
2007,08,28,12,29,17.30
2007,08,28,12,30,17.20
2007,08,28,12,31,17.10
2007,08,28,12,32,17.20
2007,08,28,12,33,17.10
2007,08,28,12,34,16.90
2007,08,28,12,35,16.80
2007,08,28,12,36,16.90
2007,08,28,12,37,16.90
2007,08,28,12,38,17.00
2007,08,28,12,39,17.20
2007,08,28,12,40,17.20
2007,08,28,12,41,17.20
2007,08,28,12,42,17.00
2007,08,28,12,43,17.00
2007,08,28,12,44,17.00
2007,08,28,12,45,17.00
2007,08,28,12,46,17.10
2007,08,28,12,47,17.10
2007,08,28,12,48,17.00
2007,08,28,12,49,17.00
2007,08,28,12,50,16.90
2007,08,28,12,51,16.90
2007,08,28,12,52,16.80
2007,08,28,12,53,16.70
2007,08,28,12,54,16.70
2007,08,28,12,55,16.70
2007,08,28,12,56,16.80
2007,08,28,12,57,16.90
2007,08,28,12,58,17.00
2007,08,28,12,59,17.10
2007,08,28,13,00,17.20
2007,08,28,13,01,17.30
2007,08,28,13,02,17.40
2007,08,28,13,03,17.50
2007,08,28,13,04,17.50
2007,08,28,13,05,17.60
2007,08,28,13,06,17.60
2007,08,28,13,07,17.70
2007,08,28,13,08,17.70
2007,08,28,13,09,17.60
2007,08,28,13,10,17.50
2007,08,28,13,11,17.50
2007,08,28,13,12,17.40
2007,08,28,13,13,17.30
2007,08,28,13,14,17.30
2007,08,28,13,15,17.50
2007,08,28,13,16,17.50
2007,08,28,13,17,17.50
2007,08,28,13,18,17.40
2007,08,28,13,19,17.30
2007,08,28,13,20,17.40
2007,08,28,13,21,17.50
2007,08,28,13,22,17.60
2007,08,28,13,23,17.70
2007,08,28,13,24,17.70
2007,08,28,13,25,17.80
2007,08,28,13,26,17.80
2007,08,28,13,27,17.90
2007,08,28,13,28,17.90
2007,08,28,13,29,17.90
2007,08,28,13,30,17.90
2007,08,28,13,31,17.90
2007,08,28,13,32,17.90
2007,08,28,13,33,17.90
2007,08,28,13,34,17.90
2007,08,28,13,35,18.00
2007,08,28,13,36,18.10
2007,08,28,13,37,18.00
2007,08,28,13,38,17.90
2007,08,28,13,39,17.90
2007,08,28,13,40,17.80
2007,08,28,13,41,17.80
2007,08,28,13,42,17.80
2007,08,28,13,43,17.70
2007,08,28,13,44,17.70
2007,08,28,13,45,17.80
2007,08,28,13,46,17.80
2007,08,28,13,47,17.80
2007,08,28,13,48,17.90
2007,08,28,13,49,17.90
2007,08,28,13,50,17.90
2007,08,28,13,51,17.90
2007,08,28,13,52,17.90
2007,08,28,13,53,17.90
2007,08,28,13,54,18.00
2007,08,28,13,55,18.20
2007,08,28,13,56,18.30
2007,08,28,13,57,18.30
2007,08,28,13,58,18.30
2007,08,28,13,59,18.40
2007,08,28,14,00,18.50
2007,08,28,14,01,18.60
2007,08,28,14,02,18.60
2007,08,28,14,03,18.70
2007,08,28,14,04,18.70
2007,08,28,14,05,18.70
2007,08,28,14,06,18.70
2007,08,28,14,07,18.70
2007,08,28,14,08,18.70
2007,08,28,14,09,18.60
2007,08,28,14,10,18.50
2007,08,28,14,11,18.50
2007,08,28,14,12,18.60
2007,08,28,14,13,18.60
2007,08,28,14,14,18.70
2007,08,28,14,15,18.80
2007,08,28,14,16,18.90
2007,08,28,14,17,18.90
2007,08,28,14,18,19.00
2007,08,28,14,19,19.10
2007,08,28,14,20,19.30
2007,08,28,14,21,19.30
2007,08,28,14,22,19.30
2007,08,28,14,23,19.20
2007,08,28,14,24,19.20
2007,08,28,14,25,19.10
2007,08,28,14,26,19.10
2007,08,28,14,27,19.10
2007,08,28,14,28,19.10
2007,08,28,14,29,19.20
2007,08,28,14,30,19.30
2007,08,28,14,31,19.30
2007,08,28,14,32,19.40
2007,08,28,14,33,19.40
2007,08,28,14,34,19.50
2007,08,28,14,35,19.50
2007,08,28,14,36,19.50
2007,08,28,14,37,19.50
2007,08,28,14,38,19.60
2007,08,28,14,39,19.80
2007,08,28,14,40,19.80
2007,08,28,14,41,19.90
2007,08,28,14,42,19.80
2007,08,28,14,43,19.80
2007,08,28,14,44,19.80
2007,08,28,14,45,19.80
2007,08,28,14,46,19.80
2007,08,28,14,47,19.90
2007,08,28,14,48,19.90
2007,08,28,14,49,20.00
2007,08,28,14,50,20.10
2007,08,28,14,51,20.10
2007,08,28,14,52,20.00
2007,08,28,14,53,20.00
2007,08,28,14,54,20.10
2007,08,28,14,55,19.90
2007,08,28,14,56,19.80
2007,08,28,14,57,19.90
2007,08,28,14,58,19.90
2007,08,28,14,59,19.90
2007,08,28,15,00,19.90
2007,08,28,15,01,20.00
2007,08,28,15,02,20.10
2007,08,28,15,03,20.20
2007,08,28,15,04,20.20
2007,08,28,15,05,20.20
2007,08,28,15,06,20.20
2007,08,28,15,07,20.20
2007,08,28,15,08,20.30
2007,08,28,15,09,20.40
2007,08,28,15,10,20.40
2007,08,28,15,11,20.50
2007,08,28,15,12,20.50
2007,08,28,15,13,20.50
2007,08,28,15,14,20.70
2007,08,28,15,15,20.80
2007,08,28,15,16,20.80
2007,08,28,15,17,20.70
2007,08,28,15,18,20.70
2007,08,28,15,19,20.60
2007,08,28,15,20,20.60
2007,08,28,15,21,20.60
2007,08,28,15,22,20.50
2007,08,28,15,23,20.60
2007,08,28,15,24,20.60
2007,08,28,15,25,20.60
2007,08,28,15,26,20.60
2007,08,28,15,27,20.60
2007,08,28,15,28,20.50
2007,08,28,15,29,20.40
2007,08,28,15,30,20.40
2007,08,28,15,31,20.50
2007,08,28,15,32,20.50
2007,08,28,15,33,20.50
2007,08,28,15,34,20.50
2007,08,28,15,35,20.50
2007,08,28,15,36,20.60
2007,08,28,15,37,20.80
2007,08,28,15,38,20.70
2007,08,28,15,39,20.70
2007,08,28,15,40,20.70
2007,08,28,15,41,20.60
2007,08,28,15,42,20.70
2007,08,28,15,43,20.70
2007,08,28,15,44,20.80
2007,08,28,15,45,20.80
2007,08,28,15,46,20.70
2007,08,28,15,47,20.60
2007,08,28,15,48,20.50
2007,08,28,15,49,20.50
2007,08,28,15,50,20.40
2007,08,28,15,51,20.30
2007,08,28,15,52,20.50
2007,08,28,15,53,20.60
2007,08,28,15,54,20.60
2007,08,28,15,55,20.60
2007,08,28,15,56,20.70
2007,08,28,15,57,20.80
2007,08,28,15,58,20.80
2007,08,28,15,59,20.70
2007,08,28,16,00,20.50
2007,08,28,16,01,20.50
2007,08,28,16,02,20.30
2007,08,28,16,03,20.20
2007,08,28,16,04,20.00
2007,08,28,16,05,19.90
2007,08,28,16,06,19.90
2007,08,28,16,07,19.80
2007,08,28,16,08,19.90
2007,08,28,16,09,19.90
2007,08,28,16,10,20.10
2007,08,28,16,11,20.20
2007,08,28,16,12,20.20
2007,08,28,16,13,20.30
2007,08,28,16,14,20.30
2007,08,28,16,15,20.30
2007,08,28,16,16,20.30
2007,08,28,16,17,20.20
2007,08,28,16,18,20.20
2007,08,28,16,19,20.30
2007,08,28,16,20,20.40
2007,08,28,16,21,20.50
2007,08,28,16,22,20.50
2007,08,28,16,23,20.60
2007,08,28,16,24,20.60
2007,08,28,16,25,20.70
2007,08,28,16,26,20.70
2007,08,28,16,27,20.70
2007,08,28,16,28,20.70
2007,08,28,16,29,20.80
2007,08,28,16,30,20.90
2007,08,28,16,31,21.00
2007,08,28,16,32,21.10
2007,08,28,16,33,21.20
2007,08,28,16,34,21.10
2007,08,28,16,35,21.00
2007,08,28,16,36,21.00
2007,08,28,16,37,21.00
2007,08,28,16,38,21.00
2007,08,28,16,39,21.00
2007,08,28,16,40,20.90
2007,08,28,16,41,20.90
2007,08,28,16,42,20.90
2007,08,28,16,43,21.00
2007,08,28,16,44,21.10
2007,08,28,16,45,21.20
2007,08,28,16,46,21.30
2007,08,28,16,47,21.30
2007,08,28,16,48,21.30
2007,08,28,16,49,21.30
2007,08,28,16,50,21.40
2007,08,28,16,51,21.30
2007,08,28,16,52,21.30
2007,08,28,16,53,21.30
2007,08,28,16,54,21.30
2007,08,28,16,55,21.30
2007,08,28,16,56,21.10
2007,08,28,16,57,21.00
2007,08,28,16,58,20.90
2007,08,28,16,59,20.90
2007,08,28,17,00,20.90
2007,08,28,17,01,20.90
2007,08,28,17,02,20.80
2007,08,28,17,03,20.70
2007,08,28,17,04,20.70
2007,08,28,17,05,20.70
2007,08,28,17,06,20.70
2007,08,28,17,07,20.80
2007,08,28,17,08,20.80
2007,08,28,17,09,20.90
2007,08,28,17,10,20.90
2007,08,28,17,11,21.00
2007,08,28,17,12,21.00
2007,08,28,17,13,21.10
2007,08,28,17,14,21.10
2007,08,28,17,15,21.20
2007,08,28,17,16,21.30
2007,08,28,17,17,21.40
2007,08,28,17,18,21.60
2007,08,28,17,19,21.60
2007,08,28,17,20,21.60
2007,08,28,17,21,21.60
2007,08,28,17,22,21.60